Tracking 19563 objects as of 20-Mar-2019
HD Live streaming from Space Station
objects crossing your sky now

COSMOS 2117

Track COSMOS 2117 now!
10-day predictions
COSMOS 2117 is classified as:


NORAD ID: 21031
Int'l Code: 1990-114D
Perigee: 1,403.6 km
Apogee: 1,415.8 km
Inclination: 82.6 °
Period: 113.8 minutes
Semi major axis: 7780 km
RCS: 1.2146 m2 (large)
Launch date: December 22, 1990
Source: Commonwealth of Independent States (former USSR) (CIS)
Launch site: PLESETSK MISSILE AND SPACE COMPLEX (PKMTR)
aabbcc
Your satellite tracking list
Your tracking list is empty




NASA's NSSDC Master Catalog

Two Line Element Set (TLE):
1 21031U 90114D   19078.55250240 +.00000042 +00000-0 +16745-3 0  9992
2 21031 082.5707 095.1733 0007867 338.0252 180.7368 12.64950452303925
Source of the keplerian elements: AFSPC